Theta_e
302 303 303 304 303 303 302 302 301 302 302 302 302 302 302 302 301 300 301 306 317 318 319 321 320 322 321 320 324 322 326 326 323 328 327 326 327 327 328 327 330 329 332 333 330 332 328 326 326 330 330 323 327 325
301 302 303 303 302 302 301 301 299 299 298 298 300 300 299 299 299 298 299 308 315 316 315 317 319 319 318 320 319 322 323 327 322 324 322 323 324 322 325 325 323 327 328 331 332 329 327 324 326 324 323 326 326 324
301 301 301 302 301 300 299 298 295 296 296 297 298 297 297 297 297 297 300 311 314 313 310 310 315 318 318 319 316 317 322 327 327 324 322 323 327 322 326 325 324 324 324 330 330 328 326 326 324 325 325 324 323 322
301 301 301 301 300 298 297 296 295 295 295 295 295 295 296 296 296 296 301 311 311 309 310 307 306 308 314 317 313 312 313 322 324 322 323 326 326 320 324 323 324 323 326 328 328 326 326 327 326 324 325 323 324 320
301 301 300 299 298 297 297 296 294 294 294 294 294 295 295 295 296 296 306 310 311 310 311 312 313 311 310 316 315 312 314 319 321 321 322 325 319 318 317 317 320 320 326 326 324 327 329 328 326 325 325 324 319 319
300 299 298 297 296 297 297 296 295 294 294 294 294 294 295 295 295 302 307 308 310 310 309 313 312 315 315 317 314 313 311 310 316 317 318 316 314 316 321 322 320 317 318 320 321 318 323 324 326 325 321 319 319 319
299 298 297 297 297 297 297 297 296 294 294 294 294 294 295 295 296 304 305 307 308 309 305 309 310 313 317 316 313 313 311 310 310 311 315 315 315 316 317 318 317 314 316 316 318 319 319 320 319 318 318 319 319 319
299 297 297 297 297 297 297 297 295 295 294 294 294 294 295 295 296 301 303 305 308 306 304 308 310 313 313 312 312 311 313 313 314 314 313 313 312 313 317 316 312 312 314 316 318 318 317 318 318 318 319 319 319 318
298 298 298 298 297 297 297 297 298 296 294 294 294 294 295 295 295 298 303 308 306 306 304 308 312 315 311 310 311 310 312 314 310 315 315 315 315 315 315 311 309 309 310 311 314 317 317 318 318 318 318 318 317 316
298 298 298 299 298 298 298 297 298 297 294 294 294 294 295 295 298 299 302 305 307 304 304 310 308 312 310 310 311 313 311 313 314 314 310 315 315 314 311 311 312 314 315 313 316 317 317 318 318 318 316 316 315 314
298 298 298 298 298 299 298 297 298 295 294 294 300 304 299 301 302 302 302 302 300 302 302 305 309 312 309 313 314 311 315 313 315 316 315 315 316 315 313 313 312 311 315 316 315 315 315 316 318 317 316 315 314 310
297 297 297 298 299 298 298 298 295 295 295 303 303 303 304 303 304 304 303 301 302 302 301 304 305 309 309 311 313 312 316 314 317 312 315 317 317 314 314 315 315 313 314 314 316 318 317 318 317 316 315 313 309 309
298 298 298 298 298 297 296 295 295 297 303 302 302 302 301 303 305 305 304 304 304 303 303 303 304 307 309 309 310 312 315 317 312 316 317 318 315 315 316 315 315 313 313 314 314 317 317 316 316 314 312 308 308 307
298 298 297 297 297 296 296 296 299 302 302 302 301 302 302 302 303 303 304 305 304 306 307 305 305 308 307 309 309 313 312 310 312 312 313 313 313 315 315 316 316 315 314 313 315 316 316 315 314 310 307 307 308 308
297 297 298 297 297 296 298 300 302 301 300 300 299 302 302 301 301 302 301 302 304 306 307 306 306 308 309 310 308 309 309 312 311 313 311 313 312 313 314 315 315 315 315 314 315 315 314 313 309 307 308 308 309 308
297 297 297 298 297 296 298 300 300 299 299 299 299 301 301 302 302 301 303 305 305 306 308 307 309 309 310 309 309 310 310 311 311 315 313 311 311 313 314 315 315 315 315 315 315 313 312 308 307 307 308 307 307 307
296 297 297 297 297 297 297 298 299 299 298 298 300 300 301 301 302 302 303 304 305 306 310 309 311 309 309 311 311 310 311 313 311 312 311 310 310 311 313 313 313 313 314 314 312 310 310 310 310 310 309 306 306 306
296 296 296 297 297 297 298 298 298 298 297 298 300 300 300 301 301 302 302 303 304 305 307 309 308 309 311 311 311 310 308 307 306 308 310 311 310 309 309 311 312 312 312 310 309 307 306 305 306 307 307 305 306 307
297 297 297 297 297 297 297 298 298 298 298 299 298 299 300 300 300 301 301 301 303 304 304 306 307 307 308 309 307 305 304 304 304 304 307 308 310 311 310 309 309 309 309 308 308 308 309 310 310 308 306 306 307 304
296 296 296 297 297 297 297 297 297 298 300 299 299 299 299 300 300 300 301 301 301 305 305 306 306 306 307 307 305 304 304 304 304 305 305 304 304 306 307 310 310 310 311 311 310 310 311 310 308 308 306 307 306 306
296 296 296 297 298 298 299 298 298 299 299 298 299 299 299 300 300 300 300 300 302 303 303 303 304 303 303 304 304 304 304 303 304 305 305 304 303 303 304 305 305 307 308 309 308 308 309 310 308 308 305 305 306 305
296 297 297 298 298 299 299 299 299 299 298 298 298 298 298 299 300 299 299 301 302 302 302 302 302 302 302 301 301 302 303 303 303 303 304 304 303 302 301 302 302 304 304 304 306 307 307 306 305 303 303 304 303 303
297 297 298 298 297 296 297 297 298 297 299 298 298 299 300 300 299 298 300 300 300 300 300 300 300 300 300 301 301 301 301 303 304 302 301 301 301 301 301 301 301 302 303 304 304 305 305 305 305 305 305 305 305 303
296 298 298 298 298 298 298 298 298 297 297 298 299 300 300 299 298 299 301 299 300 301 301 301 301 301 301 302 302 302 302 302 302 302 302 302 302 302 302 302 301 301 301 301 301 301 301 302 304 305 305 304 302 302
296 297 297 296 296 298 299 300 299 298 300 300 300 302 302 300 303 303 302 302 300 300 301 301 301 301 301 302 302 302 302 302 302 302 302 302 302 302 302 303 303 304 303 302 301 301 301 302 302 302 302 303 302 302
293 296 298 299 298 299 299 300 301 302 301 301 301 301 300 302 303 303 304 301 301 300 299 299 299 299 299 299 299 300 300 299 300 300 301 301 301 301 301 302 302 303 303 303 304 303 302 302 302 303 302 302 302 302
297 299 297 298 298 298 300 299 299 300 302 302 302 303 303 303 303 302 300 300 299 299 297 298 298 297 297 298 298 299 298 298 298 300 300 300 300 300 300 301 302 302 302 302 303 305 304 303 303 303 303 302 302 302
297 297 299 298 299 299 300 301 302 303 302 300 300 302 303 303 302 299 299 298 297 298 298 299 299 299 299 299 299 299 300 300 300 300 299 300 300 300 301 301 301 302 302 302 301 303 305 305 304 304 303 302 302 303
297 297 299 300 301 300 301 302 301 300 300 300 300 301 299 299 299 298 297 297 297 298 298 299 300 300 301 301 301 302 302 302 301 301 301 302 302 303 303 303 303 301 301 302 302 302 304 304 303 304 304 304 304 304
299 300 301 300 301 302 301 301 301 301 300 299 299 299 299 298 298 298 297 297 296 297 298 298 299 300 301 301 301 302 303 303 303 302 302 303 303 304 304 302 302 303 303 302 302 302 303 304 304 305 304 304 304 304
300 300 300 300 300 302 302 301 300 300 300 299 298 298 297 297 297 297 296 295 295 296 298 301 302 302 302 301 300 299 300 302 301 301 301 301 301 301 303 303 303 304 304 304 304 303 302 303 305 305 305 305 305 305
301 301 301 301 302 302 302 302 301 301 301 300 299 298 297 297 297 296 295 295 295 297 299 301 302 302 300 301 301 301 302 302 304 305 305 305 303 302 304 304 301 301 303 302 301 301 302 302 304 304 305 304 304 305
303 302 302 302 302 302 302 303 302 303 302 300 299 298 297 296 296 295 295 293 293 294 298 300 301 302 302 301 300 301 301 302 304 307 307 306 302 304 304 303 302 302 302 303 303 302 301 302 303 304 303 303 304 306
Wind_Speed
27 24 31 27 24 22 22 26 21 17 17 16 14 13 11 9 8 7 6 9 8 3 2 4 3 3 2 1 2 0 2 1 1 2 3 3 3 3 3 1 2 2 2 2 2 3 8 1 5 4 1 4 4 2
31 29 26 23 23 20 24 28 20 18 18 17 15 14 12 10 9 8 8 10 10 7 5 6 6 5 3 1 1 0 0 1 2 3 1 3 2 2 3 3 1 3 3 1 6 2 1 3 3 6 3 2 4 3
28 33 28 24 19 19 23 19 17 17 16 16 15 14 12 11 10 10 10 10 8 6 11 16 11 10 6 5 3 1 1 2 2 3 4 2 2 2 4 4 3 4 3 2 2 4 7 6 8 7 5 2 5 4
21 24 29 27 20 21 19 16 17 16 16 15 15 13 12 11 11 10 12 12 10 2 2 3 9 16 11 8 5 3 3 3 4 3 2 2 2 4 3 0 4 1 9 5 4 6 5 6 9 9 6 7 4 4
26 21 21 21 18 16 14 14 15 16 16 15 14 13 12 11 11 10 11 11 13 6 2 4 4 6 15 11 6 4 3 3 3 1 1 1 3 4 2 1 3 8 6 5 7 7 4 3 8 11 8 5 5 3
22 20 17 18 16 15 13 11 12 16 16 16 15 14 13 12 11 11 5 12 12 10 3 2 2 4 12 13 9 5 4 3 3 2 2 1 3 2 3 4 4 14 13 12 3 9 10 5 10 10 9 8 6 2
19 19 16 16 16 15 13 12 11 14 16 15 15 14 14 14 16 8 4 5 16 10 3 3 1 5 12 12 8 5 3 2 2 3 2 2 3 2 2 5 6 13 14 14 11 8 7 13 9 11 10 9 6 3
21 19 19 16 15 14 12 11 13 15 15 15 14 13 13 13 15 11 3 4 15 8 2 2 1 4 12 5 4 5 3 3 1 2 2 2 2 1 4 12 15 12 12 11 14 13 8 13 11 12 11 9 6 4
22 19 19 18 14 14 13 12 13 13 14 14 14 12 11 10 8 12 5 4 11 5 2 2 3 3 11 5 5 5 5 2 2 3 3 4 3 5 8 9 8 8 7 7 18 16 10 14 14 15 13 9 5 3
21 18 17 16 16 14 12 13 13 14 15 16 18 7 6 11 10 14 6 4 5 6 4 4 4 3 7 4 3 5 2 2 3 2 6 4 4 14 14 12 9 7 7 9 11 12 15 16 18 17 13 8 4 4
22 22 19 17 16 15 13 14 15 17 19 17 6 3 12 18 12 6 4 4 4 3 6 5 10 4 7 5 3 3 3 4 3 3 4 3 4 6 8 13 18 20 12 11 13 15 17 17 22 19 12 7 3 4
17 23 23 18 17 15 15 15 17 21 15 10 10 14 17 5 3 4 3 2 4 3 5 4 5 6 6 6 3 5 3 3 4 8 3 3 4 10 11 7 6 16 11 8 10 10 16 20 18 14 10 4 1 3
15 19 21 20 16 13 15 17 19 17 16 17 5 6 4 2 2 6 8 3 3 4 5 5 5 7 5 5 3 3 5 4 6 4 3 4 2 3 4 7 4 14 18 14 13 14 17 20 17 11 7 6 7 5
18 20 19 16 16 15 17 19 17 19 11 4 5 4 2 2 3 2 2 3 2 4 2 6 4 3 4 4 3 4 3 4 4 4 5 1 2 4 2 2 5 7 13 16 17 18 22 21 16 11 8 8 6 2
20 19 15 21 17 15 17 15 18 11 3 2 2 2 2 1 1 3 1 2 4 2 3 6 3 3 2 3 3 2 4 5 4 4 0 4 8 9 6 4 5 7 10 14 18 24 23 17 13 10 8 5 2 3
15 14 12 17 18 15 13 12 10 6 4 2 2 2 3 4 3 2 3 4 3 3 4 2 2 3 4 2 4 6 3 5 2 1 5 8 8 7 5 4 6 8 11 19 25 23 18 15 12 8 2 3 7 7
16 15 13 12 14 15 15 11 7 5 2 2 2 4 4 2 3 3 4 3 4 3 1 1 3 2 0 3 4 2 1 2 2 2 4 8 9 7 2 2 3 9 18 23 21 19 16 13 8 7 6 8 10 8
13 17 16 15 14 15 13 6 5 4 3 3 3 4 5 4 3 4 4 3 2 2 2 1 2 1 2 3 3 2 1 1 4 3 5 6 8 9 6 8 14 20 22 21 18 16 14 12 8 5 2 6 8 7
14 13 11 15 16 9 4 4 1 2 2 3 3 5 5 6 7 8 6 3 4 4 4 3 2 3 3 2 5 6 5 4 4 6 3 4 4 6 8 8 9 10 11 11 11 10 7 5 8 8 7 9 8 9
14 15 13 15 16 4 3 2 4 2 3 3 5 5 5 4 6 8 10 9 6 4 3 3 4 4 7 9 10 9 8 5 1 2 1 3 3 2 3 6 7 6 8 7 8 10 12 13 20 18 13 9 12 14
13 13 13 12 7 3 3 3 3 3 2 2 3 4 3 7 7 8 8 11 6 5 5 8 7 4 4 7 9 11 11 11 10 12 10 7 6 10 8 7 6 10 12 14 14 13 16 18 13 15 14 15 14 15
12 10 6 6 3 2 2 2 3 1 1 1 1 2 2 3 4 6 8 7 6 10 12 12 13 14 14 14 14 13 14 15 15 12 15 18 23 20 17 16 17 17 16 16 13 13 13 14 12 13 12 10 16 18
6 2 2 2 2 2 2 1 1 1 1 1 1 2 2 3 2 6 4 5 7 11 12 13 16 17 17 17 18 19 21 22 24 24 27 26 26 26 24 25 23 21 20 19 20 19 17 18 17 23 18 15 23 23
3 2 1 1 2 2 1 1 1 0 1 1 2 2 2 3 5 4 2 1 1 3 2 1 4 5 7 8 8 10 11 13 15 16 18 19 21 25 26 27 27 28 29 28 26 26 25 24 24 18 19 22 24 19
1 1 1 1 1 1 1 1 1 1 1 2 2 2 1 2 2 2 1 3 3 0 4 7 10 11 14 15 15 16 16 18 20 22 22 23 24 26 26 26 26 25 26 29 30 29 27 25 26 27 26 26 27 20
1 0 0 1 1 0 0 1 1 1 1 1 2 2 1 1 2 1 2 4 2 5 11 16 19 21 21 18 21 24 23 22 24 27 31 29 28 27 26 25 25 28 27 28 27 29 30 27 24 22 22 21 21 20
2 2 2 1 2 2 2 2 1 1 1 1 2 2 2 2 1 3 3 7 9 16 22 23 20 20 23 25 26 25 23 23 25 27 24 24 26 26 26 26 25 27 25 30 29 26 23 24 26 26 24 23 22 19
1 2 2 4 3 1 2 2 2 2 1 1 3 1 2 2 2 3 4 11 18 20 17 16 18 19 21 22 22 22 22 21 22 23 25 28 29 29 29 30 30 26 23 21 26 27 25 24 26 28 23 21 22 22
0 2 3 2 1 1 1 1 2 3 3 1 1 1 2 1 3 3 10 14 13 14 16 20 19 17 18 18 18 18 19 19 21 25 28 31 31 32 29 29 29 31 30 28 26 30 28 23 19 18 19 18 15 13
2 2 2 2 1 1 3 3 4 5 7 6 2 3 2 1 1 7 14 17 20 21 20 23 19 17 20 23 24 21 19 22 26 28 31 33 32 28 27 25 24 22 23 22 24 25 34 30 24 22 20 16 15 11
1 2 1 1 1 2 6 7 9 9 8 8 9 5 4 3 3 10 16 20 23 25 23 23 19 22 22 31 33 32 33 26 27 28 28 31 31 29 23 23 22 19 21 23 24 25 32 36 32 26 21 19 21 19
2 1 1 1 0 3 4 5 3 2 1 3 5 10 7 5 5 12 19 25 28 29 23 19 22 23 30 26 31 31 30 32 30 20 19 20 18 13 16 19 21 21 19 19 18 22 29 35 34 29 22 23 23 19
1 1 1 0 1 2 4 5 4 2 2 2 2 6 8 5 4 12 20 27 30 30 27 21 19 18 28 30 28 39 36 32 27 16 7 4 9 4 5 7 12 15 18 18 17 16 23 34 32 29 24 21 19 17
Wind_Direction
210 210 213 224 229 235 244 252 252 242 235 236 240 245 246 241 243 238 223 206 201 228 247 212 197 205 186 208 227 288 196 215 80 137 185 164 192 176 185 108 173 171 167 210 152 265 284 87 137 219 341 170 160 143
210 213 209 216 224 231 241 251 249 231 228 227 229 234 237 231 226 219 211 208 212 224 244 226 212 189 209 166 12 317 247 147 178 107 175 135 159 174 160 206 81 201 221 246 203 257 273 234 243 275 222 245 198 164
212 213 213 215 222 232 250 252 227 219 220 219 217 220 224 221 213 207 203 196 202 245 266 253 237 225 227 231 227 273 226 178 167 137 142 117 190 160 176 214 161 216 151 214 210 210 257 262 247 256 266 236 158 141
194 199 206 221 230 245 238 228 220 213 211 208 205 207 211 210 205 200 192 189 194 211 266 259 230 231 231 215 217 250 241 175 141 130 117 141 192 200 191 121 230 91 165 188 244 265 270 250 239 227 218 170 154 173
197 195 203 219 232 223 217 218 214 208 203 196 196 197 198 201 198 190 188 191 201 205 288 291 297 219 202 199 211 214 176 177 165 146 150 173 122 172 152 145 202 193 180 204 254 208 213 221 203 186 171 173 180 174
193 193 205 213 220 206 208 212 209 203 197 187 188 191 191 189 180 156 185 208 205 215 255 290 259 187 183 187 194 201 217 220 195 165 156 168 191 238 224 242 238 222 223 223 251 255 221 212 179 177 181 182 184 220
189 187 198 208 199 198 204 207 196 193 189 183 183 186 187 183 175 172 182 186 190 182 224 267 213 173 171 170 173 173 185 192 182 178 190 171 177 208 228 251 243 251 250 249 223 179 168 180 184 180 188 188 202 261
186 183 186 185 186 190 190 192 179 178 180 178 177 179 182 182 183 186 151 161 180 181 227 238 203 164 176 164 154 173 171 163 149 153 170 207 174 213 249 243 253 258 246 228 210 205 225 199 181 182 192 198 208 251
181 180 182 181 175 180 184 179 180 173 169 168 165 162 160 170 168 187 167 153 176 188 212 194 192 180 169 156 147 153 169 182 211 216 207 180 180 224 226 235 247 247 228 232 225 219 219 192 191 194 196 192 217 270
179 175 177 176 176 173 175 176 170 164 160 156 150 150 159 164 156 161 167 175 181 208 225 238 193 176 168 161 131 134 152 171 212 183 147 219 256 256 249 240 240 247 251 228 192 184 192 190 194 192 188 190 219 297
178 176 174 176 177 175 170 166 170 161 155 150 153 135 145 141 136 166 182 189 185 217 207 216 193 153 180 174 149 202 162 166 223 157 207 202 260 249 257 258 248 239 248 227 224 230 229 218 200 192 183 193 238 315
182 191 179 171 175 174 176 177 168 161 156 151 128 129 137 158 146 156 185 184 216 219 192 185 194 181 168 172 159 172 187 182 231 144 199 212 247 250 266 285 236 199 196 200 209 216 207 203 190 183 183 192 193 113
171 173 169 162 163 174 171 165 159 157 146 138 124 157 159 155 147 187 182 184 208 189 185 173 177 167 157 173 111 167 187 212 131 193 222 229 221 258 262 222 222 209 218 224 221 209 203 184 178 176 175 154 137 105
142 143 141 140 153 161 158 154 156 153 148 145 164 141 211 171 225 186 162 133 141 141 150 173 152 177 163 163 145 190 156 162 210 207 215 196 234 283 295 172 205 228 223 219 211 197 182 177 171 166 157 157 138 77
142 140 142 138 143 155 154 153 152 151 127 126 151 139 160 123 131 143 135 131 147 131 132 147 138 173 154 163 202 140 177 226 220 201 98 336 306 299 294 255 231 234 224 203 190 177 172 167 163 157 161 173 223 310
142 140 135 129 140 154 155 149 133 122 72 92 101 100 106 138 157 161 128 122 119 134 136 141 154 181 198 211 184 208 206 200 131 36 338 337 336 317 301 270 232 221 200 178 170 168 164 157 152 154 161 294 280 289
167 153 151 135 133 137 160 172 161 147 195 68 79 131 136 116 141 153 139 109 86 137 132 138 200 184 68 220 199 190 245 72 72 20 35 29 22 16 7 216 202 193 174 169 167 165 170 179 189 205 205 255 266 277
160 160 158 151 139 146 151 148 146 135 205 166 166 175 173 146 152 184 175 163 159 129 139 159 131 183 223 207 169 110 107 121 106 90 79 76 72 69 95 143 158 166 167 168 169 162 157 166 162 159 210 285 270 282
131 129 135 152 142 134 126 163 100 98 120 135 175 183 188 200 204 193 185 176 193 180 170 150 168 186 205 209 155 136 111 96 81 57 72 91 97 117 115 132 146 152 151 159 167 171 180 210 259 239 239 243 263 283
134 142 143 153 155 130 113 140 151 138 167 176 192 200 201 200 201 205 214 222 208 182 204 217 209 203 199 180 184 174 163 151 114 323 287 6 5 339 275 241 234 244 236 250 227 240 261 258 255 256 243 245 277 282
150 153 147 143 119 100 131 141 143 162 167 189 174 191 210 220 230 229 224 217 197 216 226 227 229 218 263 241 236 236 229 245 260 253 263 269 283 281 289 250 256 260 269 260 265 277 278 264 242 235 239 250 264 282
139 119 67 60 76 82 93 122 124 148 168 175 210 216 225 215 217 225 217 194 224 234 232 243 256 266 268 267 268 266 252 256 256 256 248 261 276 279 270 260 262 250 256 256 262 254 255 234 249 235 234 236 282 284
115 72 62 65 90 72 102 84 122 150 216 153 236 228 220 219 209 173 214 214 220 232 239 250 259 265 266 265 261 258 256 256 252 259 263 261 261 264 263 260 257 257 255 255 257 258 259 249 265 248 245 250 282 286
33 59 62 66 65 94 109 140 153 172 214 217 217 235 208 206 178 210 234 134 124 128 128 320 315 298 287 276 267 260 259 257 259 262 264 263 260 258 259 257 255 255 257 260 259 259 257 256 251 245 243 261 281 265
25 51 78 56 100 140 160 161 171 198 245 200 239 245 166 195 230 208 147 128 174 190 330 325 317 309 305 293 286 278 274 272 271 269 264 264 264 266 265 262 259 256 255 254 251 250 251 251 253 253 252 244 263 260
78 142 142 50 97 258 19 309 213 264 260 240 238 293 303 249 248 118 76 76 54 325 323 321 315 307 294 288 285 284 284 282 279 274 269 263 258 255 255 254 254 255 255 257 256 251 248 248 247 241 248 246 246 253
22 47 15 2 308 299 280 282 322 279 291 336 359 322 299 242 133 78 28 344 335 319 315 313 307 300 297 297 290 284 279 278 277 276 277 271 265 258 250 247 248 257 255 248 244 246 247 246 242 239 245 243 242 250
310 341 349 332 316 277 331 0 338 5 33 5 327 295 347 16 55 352 333 323 315 320 320 315 310 301 294 295 292 290 288 287 284 280 277 274 271 266 259 251 250 250 252 254 242 239 241 244 242 237 236 237 236 241
323 350 333 325 18 80 42 55 27 0 355 43 359 318 2 75 31 358 340 333 338 346 344 336 329 322 312 306 302 297 291 289 286 280 274 274 275 272 269 268 260 250 252 255 249 233 223 227 214 207 215 218 219 228
59 12 348 5 39 28 5 100 86 64 49 37 48 15 350 353 7 344 359 3 3 360 353 354 354 349 342 337 332 320 301 288 286 281 279 282 277 272 277 257 254 247 245 236 233 237 222 217 211 206 210 218 232 250
320 47 84 52 351 49 131 110 108 89 72 54 46 42 27 16 40 13 9 8 8 7 4 4 6 1 357 350 349 341 330 318 303 287 277 277 275 270 264 265 244 241 236 233 233 234 229 219 219 220 221 230 244 254
70 66 98 82 68 170 205 195 214 252 237 24 26 28 26 22 8 3 7 10 9 5 4 358 357 5 1 3 10 8 3 359 351 318 291 279 272 240 263 257 240 214 216 227 229 229 221 218 215 217 222 232 237 243
13 38 96 32 246 225 194 194 219 211 171 27 35 19 18 13 3 354 4 9 2 354 358 351 351 357 9 14 20 15 10 15 9 351 310 199 157 216 220 199 211 212 220 223 220 233 215 208 208 209 214 217 227 223